Fort Peck Lake Weather Center

Moon Phase Calendar



Fort Peck Lake Water Level
Online Cameras

 


      

Current Conditions in Jordan
2/29/2024 7:16:21 AM

45°F
Feels Like 38
Clouds
Humidity
51%
Pressure
29.62"
Wind
15.5 mph (SW)
Dew Point
29°F
UV Index
0/10 (Low)
Visibility
6 mi

Hourly Forecast

Date & Time Thu, Feb 29
7:00 AM
Thu, Feb 29
8:00 AM
Thu, Feb 29
9:00 AM
Thu, Feb 29
10:00 AM
Thu, Feb 29
11:00 AM
Thu, Feb 29
12:00 PM
Thu, Feb 29
1:00 PM
Thu, Feb 29
2:00 PM
Thu, Feb 29
3:00 PM
Thu, Feb 29
4:00 PM
Thu, Feb 29
5:00 PM
Thu, Feb 29
6:00 PM
Thu, Feb 29
7:00 PM
Thu, Feb 29
8:00 PM
Thu, Feb 29
9:00 PM
Thu, Feb 29
10:00 PM
Thu, Feb 29
11:00 PM
Fri, Mar 1
12:00 AM
Fri, Mar 1
1:00 AM
Fri, Mar 1
2:00 AM
Fri, Mar 1
3:00 AM
Fri, Mar 1
4:00 AM
Fri, Mar 1
5:00 AM
Fri, Mar 1
6:00 AM
Fri, Mar 1
7:00 AM
Fri, Mar 1
8:00 AM
Fri, Mar 1
9:00 AM
Fri, Mar 1
10:00 AM
Fri, Mar 1
11:00 AM
Fri, Mar 1
12:00 PM
Fri, Mar 1
1:00 PM
Fri, Mar 1
2:00 PM
Fri, Mar 1
3:00 PM
Fri, Mar 1
4:00 PM
Fri, Mar 1
5:00 PM
Fri, Mar 1
6:00 PM
Fri, Mar 1
7:00 PM
Fri, Mar 1
8:00 PM
Fri, Mar 1
9:00 PM
Fri, Mar 1
10:00 PM
Fri, Mar 1
11:00 PM
Sat, Mar 2
12:00 AM
Sat, Mar 2
1:00 AM
Sat, Mar 2
2:00 AM
Sat, Mar 2
3:00 AM
Sat, Mar 2
4:00 AM
Sat, Mar 2
5:00 AM
Sat, Mar 2
6:00 AM
Condition
Clouds

Clouds

Clouds

Clouds

Clouds

Clouds

Clouds

Clouds

Clouds

Clouds

Clouds

Clouds

Clouds

Clouds

Clouds

Clouds

Clouds

Clouds

Clouds

Clouds

Clouds

Clouds

Clouds

Clouds

Clouds

Clouds

Clouds

Clouds

Clouds

Clouds

Clouds

Clear

Clouds

Clouds

Clouds

Rain

Rain

Clouds

Clouds

Clouds

Clouds

Clear

Clouds

Clouds

Clouds

Clouds

Clouds

Clouds
Temperature 45°F44°F45°F47°F51°F54°F56°F56°F56°F53°F51°F48°F46°F45°F46°F49°F51°F51°F50°F44°F41°F39°F37°F37°F35°F35°F36°F38°F40°F43°F44°F45°F46°F46°F44°F42°F39°F35°F34°F33°F33°F32°F32°F33°F33°F33°F33°F33°F
Feels Like 38°F37°F37°F39°F47°F51°F53°F53°F53°F50°F48°F41°F40°F40°F40°F43°F47°F48°F43°F36°F34°F31°F29°F31°F28°F28°F28°F32°F36°F39°F42°F44°F44°F42°F38°F36°F33°F29°F30°F30°F33°F29°F29°F30°F29°F29°F28°F27°F
Cloudiness 59%59%62%67%66%86%55%41%47%57%64%95%96%97%98%86%81%100%100%98%92%91%87%100%90%94%95%94%95%25%13%9%13%27%39%100%94%67%58%48%41%9%50%67%75%80%83%100%
Visibility 6 mi6 mi6 mi6 mi6 mi6 mi6 mi6 mi6 mi6 mi6 mi6 mi6 mi6 mi6 mi6 mi6 mi6 mi6 mi6 mi6 mi6 mi6 mi6 mi6 mi6 mi6 mi6 mi6 mi6 mi6 mi6 mi6 mi6 mi6 mi6 mi5 mi6 mi6 mi6 mi6 mi6 mi6 mi6 mi6 mi6 mi6 mi6 mi
Precipitation 0%0%0%0%0%0%0%0%0%0%0%0%0%0%0%0%0%0%0%0%0%0%0%16%0%0%0%0%0%0%0%0%0%0%0%44%63%68%68%56%51%0%0%0%0%0%0%0%
Humidity 51%50%47%43%37%33%31%32%34%38%42%48%52%53%51%42%38%37%40%54%61%65%71%71%74%73%66%60%53%47%42%38%38%39%48%59%74%91%93%92%91%89%89%86%82%80%75%72%
Dew Point 29°F27°F27°F26°F26°F25°F26°F27°F28°F29°F29°F29°F29°F29°F28°F27°F26°F26°F26°F29°F28°F28°F29°F28°F28°F27°F26°F25°F24°F24°F23°F21°F21°F22°F26°F28°F31°F32°F32°F31°F30°F30°F29°F29°F28°F27°F26°F25°F
Pressure 29.62"29.62"29.62"29.56"29.53"29.5"29.47"29.44"29.41"29.41"29.38"29.41"29.41"29.38"29.35"29.32"29.29"29.32"29.35"29.44"29.47"29.5"29.53"29.56"29.62"29.68"29.68"29.68"29.68"29.68"29.65"29.65"29.65"29.65"29.65"29.65"29.71"29.74"29.77"29.77"29.74"29.74"29.71"29.71"29.68"29.65"29.65"29.65"
Wind Speed 15.5 mph15.6 mph18.1 mph21.5 mph24.2 mph25 mph24.6 mph24 mph23 mph22.9 mph21.8 mph16 mph11.8 mph9.7 mph11.9 mph19.4 mph21 mph23.8 mph22.7 mph22.2 mph10.7 mph16.1 mph14.6 mph8.2 mph9.2 mph9.4 mph11.7 mph8.1 mph5.4 mph5.6 mph4.6 mph3.7 mph3.6 mph7.2 mph10.8 mph9.4 mph8.3 mph7.6 mph4.1 mph3.5 mph2.8 mph3.9 mph3.6 mph3.8 mph4.4 mph4.4 mph5.7 mph7.6 mph
Wind
Direction
216°
SW
218°
SW
223°
SW
223°
SW
223°
SW
226°
SW
224°
SW
226°
SW
223°
SW
219°
SW
216°
SW
203°
SSW
188°
S
183°
S
202°
SSW
223°
SW
222°
SW
226°
SW
233°
SW
276°
W
278°
W
273°
W
271°
W
278°
W
297°
WNW
309°
NW
310°
NW
306°
NW
280°
W
294°
WNW
319°
NW
352°
N
61°
ENE
141°
SE
146°
SE
160°
SSE
309°
NW
354°
N
352°
N
22°
NNE
100°
E
151°
SSE
172°
S
132°
SE
103°
ESE
115°
ESE
100°
E
100°
E

Daily Forecast

Date High Low Precip. Humidity
Today
Feb 29

Clouds
56 °F
37 °F
0%
33%
Friday
Mar 1

Rain
51 °F
33 °F
68%
47%
Saturday
Mar 2

Rain
47 °F
20 °F
58%
63%
Sunday
Mar 3

Clouds
17 °F
8 °F
0%
42%
Monday
Mar 4

Clear
15 °F
4 °F
0%
42%
Tuesday
Mar 5

Clear
33 °F
10 °F
0%
35%
Wednesday
Mar 6

Clouds
41 °F
26 °F
0%
32%
Thursday
Mar 7

Clouds
37 °F
28 °F
0%
46%
Friday
Mar 8

Clouds
43 °F
27 °F
0%
53%
Saturday
Mar 9

Clear
49 °F
31 °F
0%
34%
Sunday
Mar 10

Clear
49 °F
34 °F
0%
38%
Monday
Mar 11

Clouds
58 °F
36 °F
0%
30%
Tuesday
Mar 12

Clouds
55 °F
40 °F
0%
37%
Wednesday
Mar 13

Clouds
50 °F
39 °F
0%
30%
Thursday
Mar 14

Clear
50 °F
34 °F
0%
36%
Friday
Mar 15

Clouds
51 °F
36 °F
0%
33%

Temperature 8-14 Day Outlook



Precipitation 8-14 Day Outlook




Quick Links
Fort Peck Lake News
Fort Peck Lake Photos
Fort Peck Lake Videos




About Us
Contact Us
Site Map
Search Site
Advertise With Us
   
FortPeck.USLakes.info
THE FORT PECK LAKE WEBSITE

Copyright 2024, Lakes Online
Privacy    |    Legal